Location: Adamstown South Public School
(32.9318°S, 151.7012°E)
Time: 17:15:29
(UTC+00:00)

NOAA 12 - Pass Details

Date: 07 June 2020
Orbit: 796 x 814 km, 98.5° (Epoch: 04 July)

Event Time Altitude Azimuth Distance (km) Brightness Sun altitude
Exits shadow 08:09:13 - 163° (SSE) 2,815 6.6 -15.6°
Reaches altitude 10° 08:10:17 10° 161° (SSE) 2,398 6.2 -15.8°
Maximum altitude 08:15:33 66° 79° (ENE) 873 4.0 -16.8°
Drops below altitude 10° 08:20:45 10° 356° (N) 2,364 6.8 -17.9°
Sets 08:23:05 0° 353° (N) 3,287 7.6 -18.3°
